Location: LewisvilleTX
(33.0462°N, 96.9942°W)
Time: 21:44:16
(UTC+00:00)

N. Korean satellite - Pass Details

Date: 30 November 2021
Orbit: 447 x 490 km, 97.3° (Epoch: 27 January)

Event Time Altitude Azimuth Distance (km) Brightness Sun altitude
Rises 00:03:57 0° 212° (SSW) 2,551 11.2 -9.1°
Reaches altitude 10° 00:07:31 10° 251° (WSW) 1,666 10.9 -9.8°
Maximum altitude 00:08:29 11° 267° (W) 1,610 10.6 -10.0°
Drops below altitude 10° 00:09:28 10° 282° (WNW) 1,663 10.3 -10.2°
Sets 00:13:02 0° 321° (NW) 2,535 10.5 -10.9°
